• Processing (Info)

  • MPEC 2013-P76 : 2013 PB39

    The following Minor Planet Electronic Circular may be linked-to from your own Web pages, but must not otherwise be redistributed electronically.

    A form allowing access to any MPEC is at the bottom of this page.


    Read MPEC 2013-P75 Read MPEC 2013-P77


    M.P.E.C. 2013-P76                                Issued 2013 Aug. 14, 20:29 UT
    
         The Minor Planet Electronic Circulars contain information on unusual
             minor planets and routine data on comets.  They are published
       on behalf of Commission 20 of the International Astronomical Union by the
              Minor Planet Center, Smithsonian Astrophysical Observatory,
                              Cambridge, MA 02138, U.S.A.
    
                 Prepared using the Tamkin Foundation Computer Network
    
                                  MPC@CFA.HARVARD.EDU
                URL http://www.minorplanetcenter.net/    ISSN 1523-6714
    
                                       2013 PB39
    
    Observations:
         K13P39B* C2013 08 12.46047 22 42 29.144+01 31 36.21         19.8 wLEP076F51
         K13P39B  C2013 08 12.47599 22 42 32.440+01 31 04.53         20.0 wLEP076F51
         K13P39B  C2013 08 12.49099 22 42 35.619+01 30 33.85         19.9 wLEP076F51
         K13P39B  C2013 08 12.50602 22 42 38.805+01 30 03.12         19.9 wLEP076F51
         K13P39B KC2013 08 13.08157 22 44 50.20 +01 09 55.0                qEP076J95
         K13P39B KC2013 08 13.08805 22 44 51.64 +01 09 41.6                qEP076J95
         K13P39B KC2013 08 13.09540 22 44 53.24 +01 09 26.4          19.6 RqEP076J95
         K13P39B KC2013 08 13.95129 22 48 10.67 +00 39 16.6          19.4 RtEP076A79
         K13P39B KC2013 08 13.95688 22 48 11.89 +00 39 04.0          18.6 RtEP076A79
         K13P39B KC2013 08 13.96147 22 48 12.89 +00 38 54.9          19.4 RtEP076A79
         K13P39B KC2013 08 13.97019 22 48 15.52 +00 38 30.4                qEP076J95
         K13P39B KC2013 08 13.97516 22 48 16.58 +00 38 19.8                qEP076J95
         K13P39B KC2013 08 13.98022 22 48 17.68 +00 38 08.4          19.5 RqEP076J95
         K13P39B KC2013 08 14.01151 22 48 24.25 +00 37 04.9          19.0  wEP076104
         K13P39B KC2013 08 14.01835922 48 26.15 +00 36 50.1          19.8 VuEP076I93
         K13P39B KC2013 08 14.02757122 48 28.20 +00 36 30.4          19.5 VuEP076I93
         K13P39B KC2013 08 14.03678322 48 30.20 +00 36 10.5          19.5 VuEP076I93
    
    Observer details:
    104 San Marcello Pistoiese.  Observer P. Bacci.  Measurers P. Bacci, L. Tesi,
        G. Fagioli.  0.60-m f/4 reflector + CCD.
    A79 Zvezdno Obshtestvo Observatory, Plana.  Observers F. Fratev, M. Minkov.
        Measurer F. Fratev.  0.35-m f/3.46 reflector + CCD.
    F51 Pan-STARRS 1, Haleakala.  Observers N. Primak, A. Schultz. T. Goggia,
        M. Willman.  Measurer PS1 Science Consortium.  1.8-m Ritchey-Chretien
        + CCD.
    I93 St Pardon de Conques.  Observer F. Losse.  0.40-m f/3.7 reflector + CCD.
    J95 Great Shefford.  Observer P. Birtwhistle.  0.40-m f/6.0 Schmidt-Cassegrain
        + CCD.
    
    Orbital elements:
    2013 PB39                                                Earth MOID = 0.1946 AU
    Epoch 2013 Apr. 18.0 TT = JDT 2456400.5                 MPC
    M 327.30918              (2000.0)            P               Q
    n   0.25074517     Peri.  184.26665     +0.91456012     +0.39436004
    a   2.4906594      Node   151.96806     -0.36519310     +0.90058743
    e   0.5164816      Incl.   11.01291     -0.17382117     +0.18281806
    P   3.93           H   21.7           G   0.15           U   7
    Residuals in seconds of arc
    130812 F51  0.1-  0.1-    130813 J95  0.1+  0.2+    130813 J95  0.4-  0.5-
    130812 F51  0.0   0.0     130813 A79  0.5-  0.8+    130814 104  0.4-  0.2-
    130812 F51  0.0   0.0     130813 A79  0.4-  0.2+    130814 I93  0.1+  0.0
    130812 F51  0.0   0.0     130813 A79  0.4-  1.0+    130814 I93  0.6+  0.1+
    130813 J95  0.2-  0.1-    130813 J95  0.5+  0.0     130814 I93  0.4+  0.1+
    130813 J95  0.2+  0.1+    130813 J95  0.1-  0.0
    
    Ephemeris:
    2013 PB39                a,e,i = 2.49, 0.52, 11                  q = 1.2043
    Date    TT    R. A. (2000) Decl.     Delta      r     Elong.  Phase     V
    2013 07 15    21 14 39.0 +08 54 24   0.3333  1.2933   141.3    29.5    21.2
    ...
    2013 07 30    21 55 35.5 +07 07 29   0.2598  1.2428   147.8    25.8    20.4
    ...
    2013 08 07    22 22 22.4 +04 18 16   0.2316  1.2238   152.2    22.7    20.0
    ...
    2013 08 13    22 44 31.6 +01 13 18   0.2164  1.2137   155.7    20.1    19.8
    2013 08 14    22 48 21.3 +00 38 00   0.2144  1.2123   156.3    19.6    19.8
    2013 08 15    22 52 12.7 +00 01 33   0.2125  1.2111   156.8    19.2    19.7
    ...
    2013 08 21    23 15 44.5 -03 56 57   0.2049  1.2058   159.6    17.0    19.6
    ...
    2013 08 29    23 46 37.7 -09 40 25   0.2039  1.2046   161.1    15.8    19.5
    ...
    2013 09 13    00 34 43.9 -18 51 43   0.2290  1.2204   157.1    18.7    19.9
    
    A. U. Tomatic                (C) Copyright 2013 MPC           M.P.E.C. 2013-P76
    

    Read MPEC 2013-P75 Read MPEC 2013-P77


    MPEC number:

    Enter an MPEC number in one of the following forms:

    • 1997-B01 (the full form)
    • J97B01 (the packed version of the full form)
    • B01 (the abbreviated form)